Location: Newark
(45.6000°N, 12.8833°E)
Time: 08:32:07
(UTC+00:00)

Altair - All Passes

Search period start: 19 November 2019 00:00
Search period end: 29 November 2019 00:00
Orbit: 1502 x 1682 km, 47.2° (Epoch: 17 November)

Date Brightness Start Highest point End Pass type
(mag) Time Alt. Az. Time Alt. Az. Time Alt. Az.
19 Nov - 02:00:05 10° SW 02:09:00 58° SSE 02:17:57 10° ENE visible
19 Nov - 04:04:15 10° W 04:13:28 85° N 04:22:52 10° E visible
19 Nov - 06:09:13 10° WNW 06:18:29 89° N 06:28:02 10° ESE daylight
19 Nov - 08:13:58 10° WNW 08:22:49 50° SW 08:31:57 10° SE daylight
19 Nov - 10:20:55 10° W 10:25:51 15° SW 10:30:52 10° SSW daylight
19 Nov - 23:35:21 10° SSE 23:40:51 18° SE 23:46:20 10° E visible
20 Nov - 01:35:04 10° SW 01:43:54 55° SE 01:52:46 10° ENE visible
20 Nov - 03:39:04 10° WSW 03:48:17 86° NNW 03:57:39 10° ENE visible
20 Nov - 05:44:03 10° WNW 05:53:19 87° NNE 06:02:49 10° ESE visible
20 Nov - 07:48:48 10° WNW 07:57:43 53° SW 08:06:54 10° SE daylight
20 Nov - 09:55:19 10° W 10:00:50 17° SW 10:06:29 10° SSW daylight
20 Nov - 23:10:57 10° SSE 23:15:51 16° SE 23:20:44 10° E visible
21 Nov - 01:10:03 10° SW 01:18:49 51° SE 01:27:35 10° ENE visible
21 Nov - 03:13:54 10° WSW 03:23:07 88° NNW 03:32:27 10° ENE visible
21 Nov - 05:18:53 10° W 05:28:08 86° N 05:37:36 10° E visible
21 Nov - 07:23:39 10° WNW 07:32:36 56° SW 07:41:51 10° SE daylight
21 Nov - 09:29:48 10° W 09:35:49 19° SW 09:41:58 10° SSW daylight
21 Nov - 22:46:43 10° SSE 22:50:52 14° SE 22:55:00 10° E night (unlit)
22 Nov - 00:45:04 10° SSW 00:53:44 48° SE 01:02:23 10° ENE visible
22 Nov - 02:48:44 10° WSW 02:57:57 90° NNW 03:07:16 10° ENE visible
22 Nov - 04:53:43 10° W 05:02:57 84° N 05:12:23 10° E visible
22 Nov - 06:58:29 10° WNW 07:07:29 60° SSW 07:16:46 10° SE daylight
22 Nov - 09:04:21 10° W 09:10:48 21° SW 09:17:23 10° S daylight
22 Nov - 22:22:44 10° SE 22:25:53 12° ESE 22:29:02 10° ESE night (unlit)
23 Nov - 00:20:05 10° SSW 00:28:40 45° SE 00:37:11 10° ENE visible
23 Nov - 02:23:34 10° WSW 02:32:47 88° SSE 02:42:05 10° ENE visible
23 Nov - 04:28:32 10° W 04:37:46 83° N 04:47:10 10° E visible
23 Nov - 06:33:19 10° WNW 06:42:22 63° SSW 06:51:41 10° SE daylight
23 Nov - 08:38:58 10° W 08:45:46 23° SW 08:52:44 10° S daylight
23 Nov - 21:59:28 10° SE 22:00:55 10° ESE 22:02:21 10° ESE night (unlit)
23 Nov - 23:55:08 10° SSW 00:03:36 42° SE 00:11:59 10° ENE visible
24 Nov - 01:58:24 10° WSW 02:07:38 86° SSE 02:16:54 10° ENE visible
24 Nov - 04:03:21 10° W 04:12:35 82° N 04:21:58 10° E visible
24 Nov - 06:08:10 10° WNW 06:17:15 66° SSW 06:26:35 10° SE daylight
24 Nov - 08:13:37 10° W 08:20:44 25° SW 08:28:02 10° S daylight
24 Nov - 23:30:13 10° SSW 23:38:32 39° SE 23:46:46 10° ENE visible
25 Nov - 01:33:15 10° WSW 01:42:29 83° SSE 01:51:43 10° ENE visible
25 Nov - 03:38:10 10° W 03:47:24 81° N 03:56:45 10° E visible
25 Nov - 05:43:00 10° WNW 05:52:08 70° SSW 06:01:28 10° SE visible
25 Nov - 07:48:19 10° W 07:55:42 28° SW 08:03:16 10° S daylight
25 Nov - 23:05:19 10° SSW 23:13:29 36° SE 23:21:33 10° ENE visible
26 Nov - 01:08:06 10° WSW 01:17:20 80° SSE 01:26:33 10° ENE visible
26 Nov - 03:12:59 10° W 03:22:13 81° N 03:31:32 10° E visible
26 Nov - 05:17:51 10° WNW 05:26:59 73° SSW 05:36:20 10° SE visible
26 Nov - 07:23:02 10° WNW 07:30:39 30° SW 07:38:28 10° S daylight
26 Nov - 22:40:27 10° SSW 22:48:26 33° SE 22:56:19 10° ENE night (unlit)
27 Nov - 00:42:58 10° WSW 00:52:12 77° SSE 01:01:22 10° ENE visible
27 Nov - 02:47:48 10° W 02:57:02 81° N 03:06:20 10° E visible
27 Nov - 04:52:41 10° WNW 05:01:51 76° SSW 05:11:11 10° ESE visible
27 Nov - 06:57:46 10° WNW 07:05:36 32° SW 07:13:38 10° SSE daylight
27 Nov - 22:15:36 10° SSW 22:23:23 31° SE 22:31:02 10° ENE night (unlit)
28 Nov - 00:17:50 10° WSW 00:27:04 74° SSE 00:36:12 10° ENE visible
28 Nov - 02:22:36 10° W 02:31:51 81° N 02:41:07 10° E visible
28 Nov - 04:27:32 10° WNW 04:36:43 79° SSW 04:46:03 10° ESE visible
28 Nov - 06:32:32 10° WNW 06:40:33 35° SW 06:48:46 10° SSE daylight
28 Nov - 21:50:48 10° S 21:58:21 28° SE 22:05:46 10° ENE night (unlit)
